sat.trackr.live / text

‹ back to catalog

ERMIS-2

NORAD 68420 · 2026-067E

PAYLOAD ACTIVE UNKNOWN

§ Identity

Operator
Country
GREC
Launch date
2026-03-30
Launch site
AFWTR
Launch vehicle
Mass (kg)
RCS (m²)

External: N2YO · Heavens-Above · Gunter

§ Orbital elements

Epoch: 2026-05-24T20:13:39.258336Z

Period
94.78 min
Inclination
97.4463°
Eccentricity
0.0002086
Mean motion
15.19268770 rev/d
Perigee alt
506.6 km
Apogee alt
509.5 km
Semi-major
6,886.2 km
B*
4.3936e-4
RAAN
103.6792°
Arg perigee
51.3489°
Mean anomaly
308.7932°
Rev number
840

§ Raw data

ERMIS-21 68420U 26067E   26144.84281549  .00009202  00000+0  43936-3 0  99992 68420  97.4463 103.6792 0002086  51.3489 308.7932 15.19268770  8409

JSON: /api/v1/satellites/68420 · /tle

For live sub-satellite position, see the globe view (requires WebGL).

§ Visibility from observer

Set your observer location to see the next 7 days of passes ≥ 10°. The values pass through the URL so the page stays shareable.

No JS? Fill the form by hand. The geolocation button needs JavaScript.

§ Radio — SatNOGS DB

ModeDescriptionDownlinkUplink
FM Mode S - Transmitter 2.218 GHz
FSK AX.100 Mode 5 Mode U - Transmitter 401.250 MHz

2 transmitters · refreshed weekly from db.satnogs.org